Location: ????????
(56.1167°N, 38.6333°E)
Time: 22:05:10
(UTC+00:00)

Cosmos 371 Rocket - Pass Details

Date: 18 November 2025
Orbit: 674 x 690 km, 74.0° (Epoch: 06 December)

Event Time Altitude Azimuth Distance (km) Brightness Sun altitude
Rises 15:27:12 0° 178° (S) 3,037 6.7 -18.3°
Reaches altitude 10° 15:29:38 10° 169° (S) 2,129 5.8 -18.6°
Enters shadow 15:33:28 34° 118° (ESE) 1,138 4.0 -19.1°
